sat.trackr.live / text

‹ back to catalog

KUIPER-00490

NORAD 69595 · 2026-140D

PAYLOAD ACTIVE UNKNOWN

§ Identity

Operator
Country
US
Launch date
2026-06-17
Launch site
FRGUI
Launch vehicle
Mass (kg)
RCS (m²)

External: N2YO · Heavens-Above · Gunter

§ Orbital elements

Epoch: 2026-09-19T10:05:22.139232Z

Period
97.30 min
Inclination
51.9054°
Eccentricity
0.0000405
Mean motion
14.79931795 rev/d
Perigee alt
629.3 km
Apogee alt
629.8 km
Semi-major
7,007.7 km
B*
2.7199e-4
RAAN
318.9246°
Arg perigee
77.2561°
Mean anomaly
282.8447°
Rev number
1,551

§ Raw data

KUIPER-004901 69595U 26140D   26262.42039513  .00001853  00000+0  27199-3 0  99992 69595  51.9054 318.9246 0000405  77.2561 282.8447 14.79931795 15512

JSON: /api/v1/satellites/69595 · /tle

For live sub-satellite position, see the globe view (requires WebGL).

§ Visibility from observer

Set your observer location to see the next 7 days of passes ≥ 10°. The values pass through the URL so the page stays shareable.

No JS? Fill the form by hand. The geolocation button needs JavaScript.